Flag for U.S.A. Weather past 2 weeks in Dallas, Texas, U.S.A.

Now
46 °F

Fog.


Feels Like: 43 °F
Forecast: 45 / 51 °F
Wind: 6 mph from Northeast

Location: Dallas Love Field

Current Time: Dec 19, 2014 at 4:29:59 AM

Latest Report: Dec 19, 2014 at 3:53 AM


Visibility: 6 mi

Pressure: 30.15 "Hg

Humidity: 89%

Dew point: 43 °F

Location of DallasLocation

Historic Weather in Dallas — Graph

°F

Dallas temperature yesterday

Maximum temperature yesterday: 49 °F (at 12:53 PM)
Minimum temperature yesterday: 42 °F (at 12:53 AM)
Average temperature yesterday: 46 °F

Past Weeks' High & Low Weather Summary

 TemperatureHumidityPressure
High77 °F (Dec 5, 2:53 PM)100% (Dec 9, 5:53 AM)30.42 "Hg (Dec 9, 5:53 AM)
Low41 °F (Dec 9, 3:00 AM)31% (Dec 15, 3:53 PM)29.78 "Hg (Dec 14, 5:53 PM)
Average55 °F76%30.17 "Hg
* Reported Dec 4 2:53 AM — Dec 19 2:53 AM, Dallas, Weather by CustomWeather, © 2014

Note: Actual official high and low records may vary slightly from our data, if they occured in-between our weather recording intervals... More about our weather records

Advertising

Dallas weather history for previous 24 hours

 ConditionsComfort  
Time TempWeatherWind HumidityBarometerVisibility
2:53 AM
Dec 19
46 °FMostly cloudy.8 mph89%30.14 "Hg7 mi
1:53 AM46 °FMostly cloudy.8 mph89%30.16 "Hg8 mi
12:53 AM47 °FMostly cloudy.9 mph86%30.14 "Hg7 mi
11:53 PM
Dec 18
47 °FFog.7 mph86%30.16 "Hg6 mi
10:53 PM47 °FMostly cloudy.3 mph86%30.18 "Hg8 mi
9:53 PM47 °FFog.7 mph90%30.16 "Hg6 mi
8:53 PM48 °FOvercast.No wind83%30.17 "Hg10 mi
7:53 PM48 °FOvercast.7 mph83%30.17 "Hg8 mi
6:53 PM48 °FOvercast.6 mph86%30.15 "Hg7 mi
5:53 PM49 °FOvercast.7 mph84%30.13 "Hg9 mi
4:53 PM49 °FFog.5 mph86%30.12 "Hg5 mi
3:53 PM49 °FFog.5 mph86%30.12 "Hg5 mi
2:53 PM49 °FFog.6 mph86%30.10 "Hg5 mi
1:53 PM49 °FDrizzle. Fog.5 mph86%30.11 "Hg4 mi
12:53 PM49 °FFog.No wind86%30.14 "Hg3 mi
11:53 AM48 °FFog.No wind89%30.16 "Hg3 mi
10:53 AM47 °FFog.No wind90%30.18 "Hg2 mi
9:53 AM45 °FDrizzle. Fog.3 mph97%30.17 "Hg2 mi
8:53 AM44 °FDrizzle. Fog.3 mph96%30.15 "Hg2 mi
8:00 AM44 °FDrizzle. Fog.No wind96%30.15 "Hg1 mi
6:53 AM43 °FFog.5 mph97%30.14 "Hg2 mi
5:53 AM43 °FDrizzle. Fog.6 mph97%30.12 "Hg2 mi
4:53 AM43 °FDrizzle. Fog.6 mph97%30.11 "Hg2 mi
Weather by CustomWeather, © 2014

See weather overviewHow to use our weather pages